Flag for Canada Weather past 2 weeks in Cornwall, Ontario, Canada

Now
18 °F

Cold.


Feels Like: 7 °F
Forecast: 22 / 36 °F
Wind: 9 mph from East

Location: St Anicet

Current Time: Dec 22, 2014 at 11:33:04 PM

Latest Report: Dec 22, 2014 at 10:00 PM


Visibility: N/A

Pressure: 30.29 "Hg

Humidity: 92%

Dew point: 16 °F

Location of CornwallLocation

Historic Weather in Cornwall — Graph

°F

Cornwall temperature yesterday

Maximum temperature yesterday: 18 °F (at 1:00 PM)
Minimum temperature yesterday: 9 °F (at 12:00 AM)
Average temperature yesterday: 15 °F

Past Weeks' High & Low Weather Summary

 TemperatureHumidityPressure
High36 °F (Dec 17, 4:00 PM)100% (Dec 9, 6:00 PM)30.82 "Hg (Dec 9, 6:00 PM)
Low-2 °F (Dec 20, 8:00 AM)66% (Dec 8, 8:00 AM)29.58 "Hg (Dec 11, 5:00 AM)
Average25 °F92%30.08 "Hg
* Reported Dec 7 10:00 PM — Dec 22 10:00 PM, Cornwall, Weather by CustomWeather, © 2014

Note: Actual official high and low records may vary slightly from our data, if they occured in-between our weather recording intervals... More about our weather records

Advertising

Cornwall weather history for previous 24 hours

 ConditionsComfort  
Time TempWeatherWind HumidityBarometerVisibility
10:00 PM
Dec 22
18 °FCold.9 mph92%30.29 "HgN/A
9:00 PM19 °FCold.10 mph91%30.30 "HgN/A
8:00 PM19 °FCold.10 mph98%30.31 "HgN/A
5:00 PM20 °FCold.10 mph88%30.33 "HgN/A
4:00 PM20 °FCold.12 mph87%30.32 "HgN/A
3:00 PM20 °FCold.10 mph87%30.33 "HgN/A
2:00 PM21 °FCold.13 mph86%30.33 "HgN/A
1:00 PM20 °FCold.9 mph86%30.36 "HgN/A
12:00 PM20 °FCold.10 mph86%30.38 "HgN/A
11:00 AM19 °FCold.12 mph89%30.40 "HgN/A
10:00 AM18 °FCold.5 mph93%30.42 "HgN/A
9:00 AM18 °FCold.5 mph87%30.42 "HgN/A
8:00 AM16 °FCold.5 mph95%30.42 "HgN/A
7:00 AM16 °FCold.2 mph95%30.43 "HgN/A
6:00 AM16 °FCold.2 mph95%30.42 "HgN/A
5:00 AM16 °FCold.3 mph95%30.41 "HgN/A
4:00 AM16 °FCold.5 mph95%30.41 "HgN/A
3:00 AM14 °FCold.5 mph95%30.42 "HgN/A
2:00 AM9 °FFrigid.2 mph92%30.42 "HgN/A
1:00 AM12 °FCold.5 mph94%30.40 "HgN/A
12:00 AM11 °FCold.3 mph93%30.42 "HgN/A
11:00 PM
Dec 21
13 °FCold.5 mph95%30.42 "HgN/A
Weather by CustomWeather, © 2014

See weather overviewHow to use our weather pages